,,Stat5,,Stat1,,Stat2,,Stat3,,Stat4,,Wind1,,Wind1,
time,status,PA1M_AVG,status,PR1M_SUM,status,RH1M_AVG,status,SR1M_AVG,status,TA1M_AVG,status,W1dAve1m,status,W1sAve1m,
2003-04-22, 00:00:00,VALID,916.726,VALID,0,VALID,97.8106,VALID,0.288674,VALID,19.9847,VALID,16,VALID,0.375633,
2003-04-22, 00:01:00,VALID,916.701,VALID,0,VALID,97.9034,VALID,0.220751,VALID,19.9452,VALID,36,VALID,0.494243,
2003-04-22, 00:02:00,VALID,916.671,VALID,0,VALID,97.9949,VALID,0.288674,VALID,19.9392,VALID,39,VALID,0.289063,
2003-04-22, 00:03:00,VALID,916.651,VALID,0,VALID,98.0941,VALID,0.254712,VALID,19.9258,VALID,39,VALID,0.256293,
2003-04-22, 00:04:00,VALID,916.659,VALID,0,VALID,98.1412,VALID,0.271693,VALID,19.9231,VALID,26,VALID,0.423943,
2003-04-22, 00:05:00,VALID,916.633,VALID,0,VALID,98.1679,VALID,0.271693,VALID,19.9136,VALID,3,VALID,0.736269,
2003-04-22, 00:06:00,VALID,916.643,VALID,0,VALID,98.22,VALID,0.288674,VALID,19.9069,VALID,16,VALID,0.562283,
2003-04-22, 00:07:00,VALID,916.635,VALID,0,VALID,98.0623,VALID,0.254712,VALID,19.8683,VALID,51,VALID,0.727902,
2003-04-22, 00:08:00,VALID,916.632,VALID,0,VALID,98.0255,VALID,0.237732,VALID,19.8293,VALID,53,VALID,0.815814,
2003-04-22, 00:09:00,VALID,916.636,VALID,0,VALID,98.1475,VALID,0.288674,VALID,19.8066,VALID,63,VALID,0.583333,
2003-04-22, 00:10:00,VALID,916.643,VALID,0,VALID,98.2111,VALID,0.288674,VALID,19.794,VALID,84,VALID,0.427679,
2003-04-22, 00:11:00,VALID,916.659,VALID,0,VALID,98.2238,VALID,0.254712,VALID,19.7877,VALID,92,VALID,0.342041,
2003-04-22, 00:12:00,VALID,916.669,VALID,0,VALID,98.1882,VALID,0.254712,VALID,19.7519,VALID,122,VALID,0.348741,
2003-04-22, 00:13:00,VALID,916.674,VALID,0,VALID,98.2162,VALID,0.322636,VALID,19.7193,VALID,123,VALID,0.396875,
2003-04-22, 00:14:00,VALID,916.676,VALID,0,VALID,98.2785,VALID,0.271693,VALID,19.7002,VALID,123,VALID,0.27036,
2003-04-22, 00:15:00,VALID,916.648,VALID,0,VALID,98.3866,VALID,0.288674,VALID,19.681,VALID,123,VALID,0.185113,
2003-04-22, 00:16:00,VALID,916.617,VALID,0,VALID,98.5926,VALID,0.220751,VALID,19.6845,VALID,123,VALID,0.185268,
2003-04-22, 00:17:00,VALID,916.596,VALID,0,VALID,98.7185,VALID,0.118866,VALID,19.7149,VALID,123,VALID,0.241943,
2003-04-22, 00:18:00,VALID,916.571,VALID,0,VALID,98.5557,VALID,0.152827,VALID,19.7022,VALID,121,VALID,0.373698,
2003-04-22, 00:19:00,VALID,916.568,VALID,0,VALID,98.5252,VALID,0.118866,VALID,19.6723,VALID,120,VALID,0.377679,
2003-04-22, 00:20:00,VALID,916.544,VALID,0,VALID,98.454,VALID,0.135847,VALID,19.6532,VALID,120,VALID,0.45786,
2003-04-22, 00:21:00,VALID,916.529,VALID,0,VALID,98.4667,VALID,0.135847,VALID,19.6268,VALID,113,VALID,0.649306,
2003-04-22, 00:22:00,VALID,916.495,VALID,0,VALID,98.5926,VALID,0.135847,VALID,19.6114,VALID,103,VALID,0.617411,
2003-04-22, 00:23:00,VALID,916.466,VALID,0,VALID,98.8622,VALID,0.135847,VALID,19.6631,VALID,97,VALID,0.538574,
2003-04-22, 00:24:00,VALID,916.427,VALID,0,VALID,98.7248,VALID,0.220751,VALID,19.6654,VALID,97,VALID,0.687066,
2003-04-22, 00:25:00,VALID,916.396,VALID,0,VALID,98.8558,VALID,0.220751,VALID,19.6751,VALID,96,VALID,0.690402,
2003-04-22, 00:26:00,VALID,916.387,VALID,0,VALID,98.8634,VALID,0.152827,VALID,19.7009,VALID,95,VALID,0.808949,
2003-04-22, 00:27:00,VALID,916.379,VALID,0,VALID,98.838,VALID,0.220751,VALID,19.7136,VALID,91,VALID,0.820747,
2003-04-22, 00:28:00,VALID,916.355,VALID,0,VALID,98.632,VALID,0.186789,VALID,19.684,VALID,78,VALID,0.905804,
2003-04-22, 00:29:00,VALID,916.343,VALID,0,VALID,98.5824,VALID,0.254712,VALID,19.6746,VALID,79,VALID,1.11182,
2003-04-22, 00:30:00,VALID,916.318,VALID,0,VALID,98.6943,VALID,0.254712,VALID,19.6676,VALID,91,VALID,1.17882,
2003-04-22, 00:31:00,VALID,916.303,VALID,0,VALID,98.9728,VALID,0.220751,VALID,19.7101,VALID,99,VALID,1.28237,
2003-04-22, 00:32:00,VALID,916.291,VALID,0,VALID,99.1228,VALID,0.237732,VALID,19.8047,VALID,99,VALID,0.945549,
2003-04-22, 00:33:00,VALID,916.287,VALID,0,VALID,99.0377,VALID,0.237732,VALID,19.8524,VALID,118,VALID,0.878689,
2003-04-22, 00:34:00,VALID,916.283,VALID,0,VALID,98.8698,VALID,0.220751,VALID,19.8788,VALID,120,VALID,0.724554,
2003-04-22, 00:35:00,VALID,916.273,VALID,0,VALID,98.8494,VALID,0.220751,VALID,19.8974,VALID,117,VALID,0.873779,
2003-04-22, 00:36:00,VALID,916.259,VALID,0,VALID,98.6994,VALID,0.254712,VALID,19.9144,VALID,111,VALID,0.740017,
2003-04-22, 00:37:00,VALID,916.241,VALID,0,VALID,98.5468,VALID,0.237732,VALID,19.9007,VALID,106,VALID,0.563839,
2003-04-22, 00:38:00,VALID,916.22,VALID,0,VALID,98.571,VALID,0.220751,VALID,19.8845,VALID,108,VALID,0.818892,
2003-04-22, 00:39:00,VALID,916.197,VALID,0,VALID,98.4565,VALID,0.220751,VALID,19.8522,VALID,114,VALID,0.805773,
2003-04-22, 00:40:00,VALID,916.183,VALID,0,VALID,98.4705,VALID,0.220751,VALID,19.8365,VALID,112,VALID,0.666964,
2003-04-22, 00:41:00,VALID,916.174,VALID,0,VALID,98.5036,VALID,0.220751,VALID,19.8136,VALID,125,VALID,0.618408,
2003-04-22, 00:42:00,VALID,916.155,VALID,0,VALID,98.5455,VALID,0.254712,VALID,19.8106,VALID,115,VALID,0.328125,
2003-04-22, 00:43:00,VALID,916.128,VALID,0,VALID,98.5557,VALID,0.20377,VALID,19.7785,VALID,141,VALID,0.389062,
2003-04-22, 00:44:00,VALID,916.118,VALID,0,VALID,98.6028,VALID,0.220751,VALID,19.7425,VALID,145,VALID,0.685369,
2003-04-22, 00:45:00,VALID,916.088,VALID,0,VALID,98.707,VALID,0.220751,VALID,19.7494,VALID,153,VALID,0.948785,
2003-04-22, 00:46:00,VALID,916.083,VALID,0,VALID,98.7859,VALID,0.20377,VALID,19.7263,VALID,138,VALID,1.01875,
2003-04-22, 00:47:00,VALID,916.077,VALID,0,VALID,98.8316,VALID,0.254712,VALID,19.7263,VALID,154,VALID,1.21533,
2003-04-22, 00:48:00,VALID,916.072,VALID,0,VALID,98.9436,VALID,0.220751,VALID,19.7139,VALID,152,VALID,1.25087,
2003-04-22, 00:49:00,VALID,916.077,VALID,0,VALID,99.0313,VALID,0.20377,VALID,19.7203,VALID,150,VALID,1.22455,
2003-04-22, 00:50:00,VALID,916.08,VALID,0,VALID,99.0796,VALID,0.237732,VALID,19.7303,VALID,155,VALID,0.99053,
2003-04-22, 00:51:00,VALID,916.076,VALID,0,VALID,99.1127,VALID,0.271693,VALID,19.7106,VALID,153,VALID,1.10438,
2003-04-22, 00:52:00,VALID,916.06,VALID,0,VALID,99.1635,VALID,0.220751,VALID,19.7007,VALID,137,VALID,0.713393,
2003-04-22, 00:53:00,VALID,916.043,VALID,0,VALID,99.2131,VALID,0.220751,VALID,19.6937,VALID,130,VALID,0.859131,
2003-04-22, 00:54:00,VALID,916.035,VALID,0,VALID,99.2767,VALID,0.254712,VALID,19.7201,VALID,142,VALID,1.23264,
2003-04-22, 00:55:00,VALID,916.012,VALID,0,VALID,99.3021,VALID,0.220751,VALID,19.7624,VALID,144,VALID,1.18281,
2003-04-22, 00:56:00,VALID,915.992,VALID,0,VALID,99.2551,VALID,0.237732,VALID,19.7746,VALID,140,VALID,0.908617,
2003-04-22, 00:57:00,VALID,915.986,VALID,0,VALID,99.2347,VALID,0.220751,VALID,19.8079,VALID,148,VALID,0.978733,
2003-04-22, 00:58:00,VALID,915.976,VALID,0,VALID,99.2042,VALID,0.220751,VALID,19.8173,VALID,135,VALID,0.936384,
2003-04-22, 00:59:00,VALID,915.988,VALID,0,VALID,99.1241,VALID,0.220751,VALID,19.84,VALID,144,VALID,1.00537,
2003-04-22, 01:00:00,VALID,916.008,VALID,0,VALID,99.0262,VALID,0.237732,VALID,19.8561,VALID,139,VALID,0.843316,
2003-04-22, 01:01:00,VALID,916.024,VALID,0,VALID,98.9919,VALID,0.20377,VALID,19.8693,VALID,144,VALID,1.22991,
2003-04-22, 01:02:00,VALID,916.017,VALID,0,VALID,98.9245,VALID,0.135847,VALID,19.8721,VALID,147,VALID,0.96875,
2003-04-22, 01:03:00,VALID,916.022,VALID,0,VALID,98.8723,VALID,0.20377,VALID,19.8987,VALID,143,VALID,1.01063,
2003-04-22, 01:04:00,VALID,915.998,VALID,0,VALID,98.7884,VALID,0.186789,VALID,19.9211,VALID,150,VALID,1.25737,
2003-04-22, 01:05:00,VALID,915.982,VALID,0,VALID,98.6943,VALID,0.169808,VALID,19.9435,VALID,131,VALID,1.15625,
2003-04-22, 01:06:00,VALID,915.962,VALID,0,VALID,98.6282,VALID,0.220751,VALID,19.9532,VALID,143,VALID,1.17925,
2003-04-22, 01:07:00,VALID,915.934,VALID,0,VALID,98.5379,VALID,0.186789,VALID,19.98,VALID,145,VALID,0.452902,
2003-04-22, 01:08:00,VALID,915.898,VALID,0,VALID,98.4654,VALID,0.220751,VALID,19.986,VALID,148,VALID,0.758286,
2003-04-22, 01:09:00,VALID,915.894,VALID,0,VALID,98.412,VALID,0.254712,VALID,19.9691,VALID,127,VALID,0.661892,
2003-04-22, 01:10:00,VALID,915.886,VALID,0,VALID,98.3294,VALID,0.237732,VALID,19.9788,VALID,140,VALID,0.879464,
2003-04-22, 01:11:00,VALID,915.877,VALID,0,VALID,98.2645,VALID,0.20377,VALID,19.9686,VALID,150,VALID,0.237305,
2003-04-22, 01:12:00,VALID,915.869,VALID,0,VALID,98.206,VALID,0.254712,VALID,19.9691,VALID,142,VALID,0.846788,
2003-04-22, 01:13:00,VALID,915.852,VALID,0,VALID,98.1819,VALID,0.254712,VALID,19.9621,VALID,159,VALID,0.642857,
2003-04-22, 01:14:00,VALID,915.841,VALID,0,VALID,98.1424,VALID,0.237732,VALID,19.9589,VALID,161,VALID,0.702415,
2003-04-22, 01:15:00,VALID,915.82,VALID,0,VALID,98.1106,VALID,0.220751,VALID,19.9594,VALID,146,VALID,0.59809,
2003-04-22, 01:16:00,VALID,915.801,VALID,0,VALID,98.1081,VALID,0.186789,VALID,19.9504,VALID,161,VALID,0.453795,
2003-04-22, 01:17:00,VALID,915.804,VALID,0,VALID,98.1005,VALID,0.220751,VALID,19.9467,VALID,137,VALID,0.828125,
2003-04-22, 01:18:00,VALID,915.774,VALID,0,VALID,98.1246,VALID,0.254712,VALID,19.9268,VALID,120,VALID,0.354167,
2003-04-22, 01:19:00,VALID,915.77,VALID,0,VALID,98.1361,VALID,0.220751,VALID,19.9168,VALID,105,VALID,0.528125,
2003-04-22, 01:20:00,VALID,915.74,VALID,0,VALID,98.1615,VALID,0.20377,VALID,19.9236,VALID,107,VALID,0.568892,
2003-04-22, 01:21:00,VALID,915.72,VALID,0,VALID,98.1679,VALID,0.254712,VALID,19.9233,VALID,108,VALID,0.451389,
2003-04-22, 01:22:00,VALID,915.71,VALID,0,VALID,98.2251,VALID,0.220751,VALID,19.9136,VALID,116,VALID,0.385714,
2003-04-22, 01:23:00,VALID,915.692,VALID,0,VALID,98.2315,VALID,0.254712,VALID,19.9071,VALID,146,VALID,0.661377,
2003-04-22, 01:24:00,VALID,915.689,VALID,0,VALID,98.2505,VALID,0.135847,VALID,19.9057,VALID,150,VALID,0.96658,
2003-04-22, 01:25:00,VALID,915.66,VALID,0,VALID,98.2772,VALID,0.135847,VALID,19.9062,VALID,157,VALID,0.897321,
2003-04-22, 01:26:00,VALID,915.641,VALID,0,VALID,98.2785,VALID,0.152827,VALID,19.9022,VALID,156,VALID,0.776989,
2003-04-22, 01:27:00,VALID,915.63,VALID,0,VALID,98.3128,VALID,0.135847,VALID,19.8863,VALID,150,VALID,0.875434,
2003-04-22, 01:28:00,VALID,915.616,VALID,0,VALID,98.3675,VALID,0.135847,VALID,19.8698,VALID,140,VALID,0.505134,
2003-04-22, 01:29:00,VALID,915.604,VALID,0,VALID,98.398,VALID,0.118866,VALID,19.8566,VALID,157,VALID,0.691162,
2003-04-22, 01:30:00,VALID,915.597,VALID,0,VALID,98.4794,VALID,0.169808,VALID,19.8701,VALID,133,VALID,1.01324,
2003-04-22, 01:31:00,VALID,915.595,VALID,0,VALID,98.5341,VALID,0.169808,VALID,19.8731,VALID,137,VALID,1.01563,
2003-04-22, 01:32:00,VALID,915.583,VALID,0,VALID,98.5455,VALID,0.169808,VALID,19.8962,VALID,154,VALID,1.0902,
2003-04-22, 01:33:00,VALID,915.568,VALID,0,VALID,98.5672,VALID,0.135847,VALID,19.8962,VALID,141,VALID,1.37522,
2003-04-22, 01:34:00,VALID,915.565,VALID,0,VALID,98.5951,VALID,0.135847,VALID,19.8895,VALID,143,VALID,1.16585,
2003-04-22, 01:35:00,VALID,915.555,VALID,0,VALID,98.5354,VALID,0.186789,VALID,19.9089,VALID,126,VALID,0.689209,
2003-04-22, 01:36:00,VALID,915.559,VALID,0,VALID,98.4959,VALID,0.220751,VALID,19.9054,VALID,154,VALID,0.853082,
2003-04-22, 01:37:00,VALID,915.533,VALID,0,VALID,98.5176,VALID,0.186789,VALID,19.896,VALID,150,VALID,0.91317,
2003-04-22, 01:38:00,VALID,915.529,VALID,0,VALID,98.5099,VALID,0.118866,VALID,19.9022,VALID,149,VALID,0.899148,
2003-04-22, 01:39:00,VALID,915.521,VALID,0,VALID,98.4921,VALID,0.20377,VALID,19.8984,VALID,157,VALID,0.705946,
2003-04-22, 01:40:00,VALID,915.518,VALID,0,VALID,98.4756,VALID,0.152827,VALID,19.9024,VALID,149,VALID,0.94933,
2003-04-22, 01:41:00,VALID,915.506,VALID,0,VALID,98.4527,VALID,0.169808,VALID,19.8955,VALID,146,VALID,0.784424,
2003-04-22, 01:42:00,VALID,915.493,VALID,0,VALID,98.4781,VALID,0.152827,VALID,19.8957,VALID,149,VALID,0.904297,
2003-04-22, 01:43:00,VALID,915.476,VALID,0,VALID,98.4489,VALID,0.152827,VALID,19.9057,VALID,145,VALID,1.14174,
2003-04-22, 01:44:00,VALID,915.461,VALID,0,VALID,98.379,VALID,0.135847,VALID,19.9121,VALID,156,VALID,0.89536,
2003-04-22, 01:45:00,VALID,915.447,VALID,0,VALID,98.3497,VALID,0.186789,VALID,19.8987,VALID,148,VALID,1.11849,
2003-04-22, 01:46:00,VALID,915.429,VALID,0,VALID,98.3167,VALID,0.135847,VALID,19.9154,VALID,148,VALID,0.986607,
2003-04-22, 01:47:00,VALID,915.411,VALID,0,VALID,98.2823,VALID,0.118866,VALID,19.9251,VALID,127,VALID,1.13647,
2003-04-22, 01:48:00,VALID,915.37,VALID,0,VALID,98.2022,VALID,0.152827,VALID,19.9442,VALID,104,VALID,1.13585,
2003-04-22, 01:49:00,VALID,915.349,VALID,0,VALID,98.0547,VALID,0.152827,VALID,19.9509,VALID,99,VALID,0.667634,
2003-04-22, 01:50:00,VALID,915.321,VALID,0,VALID,97.9835,VALID,0.152827,VALID,19.9572,VALID,124,VALID,0.498106,
2003-04-22, 01:51:00,VALID,915.29,VALID,0,VALID,97.9733,VALID,0.186789,VALID,19.9477,VALID,134,VALID,0.677517,
2003-04-22, 01:52:00,VALID,915.269,VALID,0,VALID,97.9873,VALID,0.152827,VALID,19.9577,VALID,110,VALID,1.12232,
2003-04-22, 01:53:00,VALID,915.249,VALID,0,VALID,97.925,VALID,0.135847,VALID,19.9741,VALID,112,VALID,0.720947,
2003-04-22, 01:54:00,VALID,915.227,VALID,0,VALID,97.8309,VALID,0.305655,VALID,19.9621,VALID,105,VALID,0.60026,
2003-04-22, 01:55:00,VALID,915.232,VALID,0,VALID,97.8004,VALID,0.254712,VALID,19.9591,VALID,128,VALID,0.795759,
2003-04-22, 01:56:00,VALID,915.225,VALID,0,VALID,97.7851,VALID,0.220751,VALID,19.9457,VALID,134,VALID,0.565578,
2003-04-22, 01:57:00,VALID,915.2,VALID,0,VALID,97.8284,VALID,0.254712,VALID,19.9462,VALID,143,VALID,0.851997,
2003-04-22, 01:58:00,VALID,915.196,VALID,0,VALID,97.8131,VALID,0.237732,VALID,19.9464,VALID,111,VALID,0.56875,
2003-04-22, 01:59:00,VALID,915.213,VALID,0,VALID,97.8131,VALID,0.271693,VALID,19.9527,VALID,133,VALID,0.650146,
2003-04-22, 02:00:00,VALID,915.199,VALID,0,VALID,97.8334,VALID,0.305655,VALID,19.9556,VALID,156,VALID,0.796007,
2003-04-22, 02:01:00,VALID,915.196,VALID,0,VALID,97.7877,VALID,0.271693,VALID,19.9524,VALID,161,VALID,0.554911,
2003-04-22, 02:02:00,VALID,915.194,VALID,0,VALID,97.7063,VALID,0.271693,VALID,19.9494,VALID,143,VALID,0.264678,
2003-04-22, 02:03:00,VALID,915.172,VALID,0,VALID,97.6287,VALID,0.254712,VALID,19.9308,VALID,148,VALID,0.119575,
2003-04-22, 02:04:00,VALID,915.152,VALID,0,VALID,97.5562,VALID,0.237732,VALID,19.8753,VALID,170,VALID,0.504687,
2003-04-22, 02:05:00,VALID,915.12,VALID,0,VALID,97.5397,VALID,0.254712,VALID,19.8459,VALID,159,VALID,0.532471,
2003-04-22, 02:06:00,VALID,915.102,VALID,0,VALID,97.6224,VALID,0.288674,VALID,19.7942,VALID,164,VALID,0.343533,
2003-04-22, 02:07:00,VALID,915.082,VALID,0,VALID,97.7317,VALID,0.254712,VALID,19.7586,VALID,148,VALID,0.623661,
2003-04-22, 02:08:00,VALID,915.043,VALID,0,VALID,97.8754,VALID,0.237732,VALID,19.7168,VALID,148,VALID,1.05114,
2003-04-22, 02:09:00,VALID,915.019,VALID,0,VALID,98.0204,VALID,0.305655,VALID,19.6465,VALID,146,VALID,0.898003,
2003-04-22, 02:10:00,VALID,915.012,VALID,0,VALID,98.2035,VALID,0.305655,VALID,19.5992,VALID,131,VALID,0.94375,
2003-04-22, 02:11:00,VALID,914.995,VALID,0,VALID,98.3548,VALID,0.305655,VALID,19.5636,VALID,93,VALID,0.894531,
2003-04-22, 02:12:00,VALID,914.989,VALID,0,VALID,98.5303,VALID,0.356597,VALID,19.5151,VALID,106,VALID,0.547309,
2003-04-22, 02:13:00,VALID,914.976,VALID,0,VALID,98.693,VALID,0.322636,VALID,19.4699,VALID,115,VALID,0.698661,
2003-04-22, 02:14:00,VALID,914.987,VALID,0,VALID,98.8507,VALID,0.305655,VALID,19.4537,VALID,102,VALID,0.774858,
2003-04-22, 02:15:00,VALID,914.981,VALID,0,VALID,98.9563,VALID,0.356597,VALID,19.4445,VALID,115,VALID,0.433594,
2003-04-22, 02:16:00,VALID,914.976,VALID,0,VALID,99.1381,VALID,0.271693,VALID,19.4311,VALID,132,VALID,0.930804,
2003-04-22, 02:17:00,VALID,914.966,VALID,0,VALID,99.2818,VALID,0.271693,VALID,19.4475,VALID,136,VALID,0.885498,
2003-04-22, 02:18:00,VALID,914.954,VALID,0,VALID,99.3899,VALID,0.305655,VALID,19.4699,VALID,153,VALID,0.914931,
2003-04-22, 02:19:00,VALID,914.945,VALID,0,VALID,99.428,VALID,0.305655,VALID,19.4987,VALID,140,VALID,1.21473,
2003-04-22, 02:20:00,VALID,914.945,VALID,0,VALID,99.4153,VALID,0.305655,VALID,19.5214,VALID,143,VALID,1.40246,
2003-04-22, 02:21:00,VALID,914.938,VALID,0,VALID,99.3873,VALID,0.356597,VALID,19.538,VALID,144,VALID,0.902778,
2003-04-22, 02:22:00,VALID,914.961,VALID,0,VALID,99.3072,VALID,0.305655,VALID,19.5509,VALID,138,VALID,0.994866,
2003-04-22, 02:23:00,VALID,914.952,VALID,0,VALID,99.2589,VALID,0.305655,VALID,19.5569,VALID,148,VALID,1.33838,
2003-04-22, 02:24:00,VALID,914.954,VALID,0,VALID,99.189,VALID,0.322636,VALID,19.5766,VALID,144,VALID,1.26324,
2003-04-22, 02:25:00,VALID,914.949,VALID,0,VALID,99.1559,VALID,0.322636,VALID,19.59,VALID,144,VALID,1.17879,
2003-04-22, 02:26:00,VALID,914.93,VALID,0,VALID,99.0822,VALID,0.339617,VALID,19.5992,VALID,136,VALID,1.17803,
2003-04-22, 02:27:00,VALID,914.93,VALID,0,VALID,98.9881,VALID,0.305655,VALID,19.6156,VALID,107,VALID,0.942491,
2003-04-22, 02:28:00,VALID,914.915,VALID,0,VALID,98.9219,VALID,0.271693,VALID,19.6154,VALID,111,VALID,1.19732,
2003-04-22, 02:29:00,VALID,914.903,VALID,0,VALID,98.7795,VALID,0.322636,VALID,19.6576,VALID,125,VALID,0.786377,
2003-04-22, 02:30:00,VALID,914.887,VALID,0,VALID,98.646,VALID,0.339617,VALID,19.6905,VALID,123,VALID,1.16341,
2003-04-22, 02:31:00,VALID,914.876,VALID,0,VALID,98.5519,VALID,0.305655,VALID,19.6833,VALID,110,VALID,0.77433,
2003-04-22, 02:32:00,VALID,914.874,VALID,0,VALID,98.3993,VALID,0.254712,VALID,19.7029,VALID,112,VALID,0.747869,
2003-04-22, 02:33:00,VALID,914.852,VALID,0,VALID,98.234,VALID,0.356597,VALID,19.7223,VALID,130,VALID,0.63737,
2003-04-22, 02:34:00,VALID,914.849,VALID,0,VALID,98.0674,VALID,0.288674,VALID,19.7191,VALID,98,VALID,1.00491,
2003-04-22, 02:35:00,VALID,914.842,VALID,0,VALID,98.0407,VALID,0.322636,VALID,19.7353,VALID,126,VALID,1.27393,
2003-04-22, 02:36:00,VALID,914.835,VALID,0,VALID,97.9326,VALID,0.339617,VALID,19.7507,VALID,113,VALID,0.962023,
2003-04-22, 02:37:00,VALID,914.84,VALID,0,VALID,97.8589,VALID,0.322636,VALID,19.7803,VALID,114,VALID,1.21339,
2003-04-22, 02:38:00,VALID,914.835,VALID,0,VALID,97.7139,VALID,0.322636,VALID,19.8161,VALID,94,VALID,1.79025,
2003-04-22, 02:39:00,VALID,914.829,VALID,0,VALID,97.4253,VALID,0.339617,VALID,19.8611,VALID,88,VALID,1.86871,
2003-04-22, 02:40:00,VALID,914.813,VALID,0,VALID,97.045,VALID,0.271693,VALID,19.9064,VALID,74,VALID,1.61161,
2003-04-22, 02:41:00,VALID,914.809,VALID,0,VALID,96.7729,VALID,0.288674,VALID,19.9522,VALID,88,VALID,1.46069,
2003-04-22, 02:42:00,VALID,914.795,VALID,0,VALID,96.5567,VALID,0.288674,VALID,19.981,VALID,99,VALID,1.2934,
2003-04-22, 02:43:00,VALID,914.778,VALID,0,VALID,96.3813,VALID,0.322636,VALID,20.0126,VALID,89,VALID,1.62054,
2003-04-22, 02:44:00,VALID,914.755,VALID,0,VALID,96.2897,VALID,0.322636,VALID,20.0452,VALID,112,VALID,1.48224,
2003-04-22, 02:45:00,VALID,914.737,VALID,0,VALID,96.1384,VALID,0.305655,VALID,20.0608,VALID,120,VALID,1.35699,
2003-04-22, 02:46:00,VALID,914.737,VALID,0,VALID,96.0863,VALID,0.305655,VALID,20.0589,VALID,104,VALID,0.828795,
2003-04-22, 02:47:00,VALID,914.725,VALID,0,VALID,96.1549,VALID,0.271693,VALID,20.0522,VALID,105,VALID,1.14966,
2003-04-22, 02:48:00,VALID,914.28,VALID,0,VALID,96.146,VALID,0.322636,VALID,20.0225,VALID,100,VALID,0.748481,
2003-04-22, 02:49:00,VALID,914.722,VALID,0,VALID,96.2834,VALID,0.305655,VALID,19.9972,VALID,127,VALID,0.857589,
2003-04-22, 02:50:00,VALID,914.735,VALID,0,VALID,96.3507,VALID,0.288674,VALID,19.9544,VALID,90,VALID,1.14323,
2003-04-22, 02:51:00,VALID,914.717,VALID,0,VALID,96.5936,VALID,0.322636,VALID,19.9387,VALID,123,VALID,1.77821,
2003-04-22, 02:52:00,VALID,914.711,VALID,0,VALID,96.6432,VALID,0.288674,VALID,19.9258,VALID,96,VALID,1.03504,
2003-04-22, 02:53:00,VALID,914.72,VALID,0,VALID,96.6483,VALID,0.305655,VALID,19.8937,VALID,89,VALID,0.580322,
2003-04-22, 02:54:00,VALID,914.709,VALID,0,VALID,96.8518,VALID,0.237732,VALID,19.8594,VALID,98,VALID,1.1122,
2003-04-22, 02:55:00,VALID,914.692,VALID,0,VALID,97.0361,VALID,0.220751,VALID,19.8688,VALID,96,VALID,1.05647,
2003-04-22, 02:56:00,VALID,914.679,VALID,0,VALID,97.0489,VALID,0.186789,VALID,19.8561,VALID,79,VALID,1.40791,
2003-04-22, 02:57:00,VALID,914.674,VALID,0,VALID,97.1328,VALID,0.237732,VALID,19.8661,VALID,100,VALID,1.43359,
2003-04-22, 02:58:00,VALID,914.67,VALID,0,VALID,97.1315,VALID,0.237732,VALID,19.8661,VALID,134,VALID,1.17545,
2003-04-22, 02:59:00,VALID,914.657,VALID,0,VALID,97.1226,VALID,0.20377,VALID,19.8853,VALID,109,VALID,1.28979,
2003-04-22, 03:00:00,VALID,914.648,VALID,0,VALID,97.0616,VALID,0.186789,VALID,19.8982,VALID,117,VALID,1.35916,
2003-04-22, 03:01:00,VALID,914.65,VALID,0,VALID,97.0438,VALID,0.237732,VALID,19.8915,VALID,117,VALID,1.33348,
2003-04-22, 03:02:00,VALID,914.634,VALID,0,VALID,97.0578,VALID,0.220751,VALID,19.9111,VALID,119,VALID,1.63068,
2003-04-22, 03:03:00,VALID,914.654,VALID,0,VALID,96.9827,VALID,0.169808,VALID,19.9238,VALID,125,VALID,1.79796,
2003-04-22, 03:04:00,VALID,914.652,VALID,0,VALID,96.9688,VALID,0.220751,VALID,19.9407,VALID,114,VALID,1.91138,
2003-04-22, 03:05:00,VALID,914.672,VALID,0,VALID,96.8136,VALID,0.220751,VALID,19.9599,VALID,111,VALID,1.67041,
2003-04-22, 03:06:00,VALID,914.689,VALID,0,VALID,96.6852,VALID,0.237732,VALID,19.9664,VALID,134,VALID,1.17925,
2003-04-22, 03:07:00,VALID,914.691,VALID,0,VALID,96.6496,VALID,0.186789,VALID,19.9701,VALID,108,VALID,1.54129,
2003-04-22, 03:08:00,VALID,914.703,VALID,0,VALID,96.6381,VALID,0.169808,VALID,19.9728,VALID,129,VALID,1.77344,
2003-04-22, 03:09:00,VALID,914.755,VALID,0,VALID,96.5758,VALID,0.339617,VALID,19.9944,VALID,126,VALID,2.0204,
2003-04-22, 03:10:00,VALID,914.771,VALID,0,VALID,96.4601,VALID,0.271693,VALID,19.9745,VALID,101,VALID,1.75134,
2003-04-22, 03:11:00,VALID,914.771,VALID,0,VALID,96.4741,VALID,0.322636,VALID,19.975,VALID,71,VALID,0.782227,
2003-04-22, 03:12:00,VALID,914.78,VALID,0,VALID,96.5504,VALID,0.288674,VALID,19.9584,VALID,92,VALID,1.71788,
2003-04-22, 03:13:00,VALID,914.796,VALID,0,VALID,96.4461,VALID,0.288674,VALID,19.991,VALID,66,VALID,1.90804,
2003-04-22, 03:14:00,VALID,914.801,VALID,0,VALID,96.1536,VALID,0.322636,VALID,20.0236,VALID,75,VALID,1.74621,
2003-04-22, 03:15:00,VALID,914.788,VALID,0,VALID,95.8256,VALID,0.339617,VALID,20.0554,VALID,73,VALID,2.13043,
2003-04-22, 03:16:00,VALID,914.796,VALID,0,VALID,95.4021,VALID,0.339617,VALID,20.1076,VALID,85,VALID,2.30112,
2003-04-22, 03:17:00,VALID,914.806,VALID,0,VALID,94.9342,VALID,0.305655,VALID,20.1723,VALID,87,VALID,1.93945,
2003-04-22, 03:18:00,VALID,914.825,VALID,0,VALID,94.6519,VALID,0.339617,VALID,20.2171,VALID,77,VALID,2.0434,
2003-04-22, 03:19:00,VALID,914.82,VALID,0,VALID,94.5463,VALID,0.322636,VALID,20.2395,VALID,75,VALID,1.99487,
2003-04-22, 03:20:00,VALID,914.836,VALID,0,VALID,94.5909,VALID,0.322636,VALID,20.2529,VALID,67,VALID,1.70502,
2003-04-22, 03:21:00,VALID,914.862,VALID,0,VALID,94.732,VALID,0.288674,VALID,20.2034,VALID,76,VALID,1.95247,
2003-04-22, 03:22:00,VALID,914.857,VALID,0,VALID,94.8782,VALID,0.305655,VALID,20.1853,VALID,81,VALID,1.61652,
2003-04-22, 03:23:00,VALID,914.873,VALID,0,VALID,94.9876,VALID,0.288674,VALID,20.1462,VALID,66,VALID,1.42139,
2003-04-22, 03:24:00,VALID,914.876,VALID,0,VALID,95.0575,VALID,0.305655,VALID,20.1298,VALID,65,VALID,1.59766,
2003-04-22, 03:25:00,VALID,914.893,VALID,0,VALID,95.0054,VALID,0.271693,VALID,20.1168,VALID,63,VALID,2.19911,
2003-04-22, 03:26:00,VALID,914.894,VALID,0,VALID,94.8528,VALID,0.271693,VALID,20.1362,VALID,54,VALID,1.97988,
2003-04-22, 03:27:00,VALID,914.885,VALID,0,VALID,94.8503,VALID,0.339617,VALID,20.1457,VALID,48,VALID,2.41732,
2003-04-22, 03:28:00,VALID,914.901,VALID,0,VALID,94.7523,VALID,0.288674,VALID,20.139,VALID,62,VALID,2.56205,
2003-04-22, 03:29:00,VALID,914.92,VALID,0,VALID,94.5591,VALID,0.305655,VALID,20.1818,VALID,51,VALID,2.08813,
2003-04-22, 03:30:00,VALID,914.922,VALID,0,VALID,94.4878,VALID,0.288674,VALID,20.1818,VALID,52,VALID,1.84657,
2003-04-22, 03:31:00,VALID,914.918,VALID,0,VALID,94.3683,VALID,0.305655,VALID,20.2012,VALID,67,VALID,1.73795,
2003-04-22, 03:32:00,VALID,914.924,VALID,0,VALID,94.3162,VALID,0.339617,VALID,20.1982,VALID,76,VALID,1.9259,
2003-04-22, 03:33:00,VALID,914.903,VALID,0,VALID,94.1,VALID,0.339617,VALID,20.2208,VALID,70,VALID,1.85265,